Location: Karlsruhe
(49.0131°N, 8.3874°E)
Time: 12:41:32
(UTC+02:00)

ISS - Pass Details

Date: 10 February 2018
Orbit: 403 x 408 km, 51.6° (Epoch: 22 September)

Event Time Altitude Azimuth Distance (km) Brightness Sun altitude
Rises 18:39:33 0° 289° (WNW) 2,323 1.2 -10.5°
Reaches altitude 10° 18:41:41 10° 283° (WNW) 1,461 0.2 -10.8°
Maximum altitude 18:44:48 42° 211° (SSW) 590 -2.7 -11.3°
Drops below altitude 10° 18:47:55 10° 139° (SE) 1,461 -1.3 -11.8°
Enters shadow 18:48:26 - 136° (SE) 1,662 -1.1 -11.9°
